Flag for U.S.A. Weather past 2 weeks in Akron, Ohio, U.S.A.

Now
72 °F

Fog.


Feels Like: 70 °F
Forecast: 70 / 88 °F
Wind: 3 mph from Southwest

Location: Akron Fulton International Airport

Current Time: Sep 3, 2015 at 3:21:58 AM

Latest Report: Sep 3, 2015 at 2:54 AM


Visibility: 6 mi

Pressure: 29.95 "Hg

Humidity: 87%

Dew point: 68 °F

Location of AkronLocation

Historic Weather in Akron — Graph

°F

Akron temperature yesterday

Maximum temperature yesterday: 91 °F (at 4:54 PM)
Minimum temperature yesterday: 71 °F (at 12:54 AM)
Average temperature yesterday: 79 °F

Past Weeks' High & Low Weather Summary

 TemperatureHumidityPressure
High91 °F (Aug 19, 3:54 PM)93% (Aug 28, 1:54 AM)30.21 "Hg (Aug 28, 1:54 AM)
Low51 °F (Aug 28, 6:54 AM)27% (Aug 21, 4:54 PM)29.75 "Hg (Aug 20, 3:54 AM)
Average71 °F65%30.03 "Hg
* Reported Aug 19 1:54 AM — Sep 3 1:54 AM, Akron, Weather by CustomWeather, © 2015

Note: Actual official high and low records may vary slightly from our data, if they occured in-between our weather recording intervals... More about our weather records

Advertising

Akron weather history for previous 24 hours

 ConditionsComfort  
Time TempWeatherWind HumidityBarometerVisibility
1:54 AM
Thu, Sep 3
74 °FClear.No wind88%29.96 "Hg7 mi
12:54 AM73 °FFog.5 mph90%29.97 "Hg6 mi
11:54 PM
Wed, Sep 2
73 °FFog.No wind90%29.98 "Hg5 mi
11:01 PM75 °FThundershowers. Mostly cloudy.5 mph79%30.00 "Hg5 mi
9:54 PM78 °FPassing clouds.5 mph71%29.97 "Hg10 mi
8:54 PM79 °FPassing clouds.5 mph69%29.98 "Hg10 mi
7:54 PM80 °FScattered clouds.6 mph67%29.96 "Hg10 mi
6:54 PM83 °FSunny.7 mph63%29.96 "Hg10 mi
5:54 PM91 °FPassing clouds.12 mph38%29.95 "Hg10 mi
4:54 PM91 °FScattered clouds.13 mph38%29.96 "Hg10 mi
3:54 PM88 °FPassing clouds.N/A46%29.98 "Hg10 mi
2:54 PM89 °FPassing clouds.10 mph45%30.01 "Hg10 mi
1:54 PM90 °FPartly sunny.10 mph43%30.02 "Hg10 mi
12:54 PM88 °FScattered clouds.7 mph48%30.04 "Hg10 mi
11:54 AM86 °FPassing clouds.10 mph53%30.07 "Hg10 mi
10:54 AM83 °FSunny.9 mph61%30.08 "Hg10 mi
9:54 AM81 °FSunny.5 mph65%30.08 "Hg10 mi
8:54 AM76 °FSunny.7 mph74%30.08 "Hg8 mi
7:54 AM72 °FSunny.3 mph84%30.09 "Hg4 mi
6:54 AM72 °FClear.3 mph84%30.07 "Hg5 mi
5:54 AM72 °FClear.3 mph84%30.06 "Hg7 mi
4:54 AM71 °FClear.No wind87%30.06 "Hg7 mi
3:54 AM72 °FClear.No wind84%30.06 "Hg7 mi
Weather by CustomWeather, © 2015

See weather overviewHow to use our weather pages